[TLELIST] Archives

 

Current TLEs

September 19th 2006 PDT

HST 1 20580U 90037B 06261.90685744 .00000428 00000-0 20528-4 0 7007 2 20580 028.4676 158.9257 0003733 104.4247 255.6756 15.00094857699183 ISS (ZARYA) 1 25544U 98067A 06262.45957253 .00016595 00000-0 10859-3 0 6951 2 25544 051.6352 061.8317 0011303 001.4136 048.2097 15.75891624448030 CXO 1 25867U 99040B 06260.29166667 +.00000000 +00000-0 +00000-0 0 09762 2 25867 060.1526 095.0753 5913797 288.9926 357.3351 00.37791668001234 ____________________________________________________________________ These 2-Line ...Continue Reading

Current TLEs

September 18th 2006 PDT

HST 1 20580U 90037B 06259.97743825 +.00000480 +00000-0 +24603-4 0 07204 2 20580 028.4677 171.5028 0003708 083.3279 276.7730 15.00094075698898 ISS (ZARYA) 1 25544U 98067A 06261.32207801 .00005709 00000-0 40249-4 0 6854 2 25544 051.6341 067.6907 0011290 355.6429 076.4483 15.75843464447851 CXO 1 25867U 99040B 06260.29166667 +.00000000 +00000-0 +00000-0 0 09762 2 25867 060.1526 095.0753 5913797 288.9926 357.3351 00.37791668001234 ____________________________________________________________________ These 2-Line ...Continue Reading

Current TLEs

September 17th 2006 PDT

HST 1 20580U 90037B 06260.17703337 .00000488 00000-0 25227-4 0 6998 2 20580 028.4677 170.2011 0003739 085.6611 274.4408 15.00094273698926 ISS (ZARYA) 1 25544U 98067A 06260.30555731 .00014722 00000-0 97158-4 0 6798 2 25544 051.6348 072.9255 0011231 352.2176 069.2652 15.75814755447691 CXO 1 25867U 99040B 06260.29166667 +.00000000 +00000-0 +00000-0 0 09762 2 25867 060.1526 095.0753 5913797 288.9926 357.3351 00.37791668001234 ____________________________________________________________________ These 2-Line ...Continue Reading

Current TLEs

September 16th 2006 PDT

HST 1 20580U 90037B 06258.91293015 .00000482 00000-0 24716-4 0 6989 2 20580 028.4680 178.4427 0003604 071.9690 288.1288 15.00093404698739 ISS (ZARYA) 1 25544U 98067A 06259.47707632 .00014917 00000-0 98494-4 0 6748 2 25544 051.6353 077.1927 0011229 348.1879 050.2425 15.75790455447565 CXO 1 25867U 99040B 06257.66666667 +.00000000 +00000-0 +00000-0 0 09742 2 25867 060.1471 095.0977 5910703 289.0890 359.9168 00.37790118001229 ____________________________________________________________________ These 2-Line ...Continue Reading

Current TLEs

September 15th 2006 PDT

HST 1 20580U 90037B 06256.91697540 +.00000479 +00000-0 +24514-4 0 07183 2 20580 028.4683 191.4537 0003462 049.8085 310.2805 15.00092115698430 ISS (ZARYA) 1 25544U 98067A 06258.16481481 .00028313 00000-0 18306-3 0 6685 2 25544 051.6342 083.9519 0011387 342.8609 166.3913 15.75765342447357 CXO 1 25867U 99040B 06257.66666667 +.00000000 +00000-0 +00000-0 0 09742 2 25867 060.1471 095.0977 5910703 289.0890 359.9168 00.37790118001229 ____________________________________________________________________ These 2-Line ...Continue Reading

Current TLEs

September 14th 2006 PDT

HST 1 20580U 90037B 06256.91697540 +.00000479 +00000-0 +24514-4 0 07183 2 20580 028.4683 191.4537 0003462 049.8085 310.2805 15.00092115698430 ISS (ZARYA) 1 25544U 98067A 06256.96061816 +.00022214 +00000-0 +14349-3 0 06606 2 25544 051.6338 090.1459 0011748 336.3375 177.2662 15.75940890447168 CXO 1 25867U 99040B 06257.66666667 +.00000000 +00000-0 +00000-0 0 09742 2 25867 060.1471 095.0977 5910703 289.0890 359.9168 00.37790118001229 ____________________________________________________________________ These 2-Line ...Continue Reading

Current TLEs

September 13th 2006 PDT

HST 1 20580U 90037B 06255.91899708 .00000472 00000-0 23931-4 0 6962 2 20580 028.4684 197.9589 0003399 038.3031 321.7798 15.00091442698285 ISS (ZARYA) 1 25544U 98067A 06256.13425926 .00022264 00000-0 14407-3 0 6555 2 25544 051.6337 094.4005 0011243 334.6327 167.6319 15.75906407447033 CXO 1 25867U 99040B 06255.04166667 .00000235 00000-0 00000+0 0 9724 2 25867 060.1214 095.1514 5914122 289.1400 002.5227 00.37801579 1219 ____________________________________________________________________ These 2-Line ...Continue Reading

Current TLEs

September 12th 2006 PDT

HST 1 20580U 90037B 06253.92303868 +.00000480 +00000-0 +24575-4 0 07019 2 20580 028.4685 210.9702 0003302 014.9437 345.1251 15.00090275697986 ISS (ZARYA) 1 25544U 98067A 06255.18425926 .00014319 00000-0 94570-4 0 6494 2 25544 051.6329 099.2949 0011301 332.0138 176.9409 15.75825592446881 CXO 1 25867U 99040B 06255.04166667 .00000000 00000-0 00000+0 0 9713 2 25867 060.1214 095.1514 5914122 289.1400 002.5227 00.37801672 1213 ____________________________________________________________________ These 2-Line ...Continue Reading

Current TLEs

September 11th 2006 PDT

HST 1 20580U 90037B 06252.92505997 +.00000491 +00000-0 +25466-4 0 07118 2 20580 028.4689 217.4792 0003395 003.4717 356.5923 15.00089724697830 ISS (ZARYA) 1 25544U 98067A 06254.16085845 .00014210 00000-0 94015-4 0 6453 2 25544 051.6332 104.5656 0011228 327.6796 131.6820 15.75794501446721 CXO 1 25867U 99040B 06255.04166667 .00000000 00000-0 00000+0 0 9713 2 25867 060.1214 095.1514 5914122 289.1400 002.5227 00.37801672 1213 ____________________________________________________________________ These 2-Line ...Continue Reading

Current TLEs

September 10th 2006 PDT

HST 1 20580U 90037B 06253.19118692 .00000478 00000-0 24479-4 0 6948 2 20580 028.4685 215.7406 0003302 006.9369 353.1264 15.00089798697874 ISS (ZARYA) 1 25544U 98067A 06253.38071759 .00014402 00000-0 95316-4 0 6408 2 25544 051.6331 108.5823 0011176 324.6962 026.0817 15.75772460446592 CXO 1 25867U 99040B 06252.37500000 .00000000 00000-0 00000+0 0 9708 2 25867 060.0869 095.2763 5915255 289.0953 359.5448 00.37810092 1211 ____________________________________________________________________ These 2-Line ...Continue Reading
  • This mailing list is a public mailing list - anyone may join or leave, at any time.
  • This mailing list is announce-only.

International Space Station (ISS) / Hubble Space Telescope (HST) / Chandra X-Ray Observatory Orbital Data via EMAIL

Privacy Policy:

Private list